Time,TemperatureF,DewpointF,PressureIn,WindDirection,WindDirectionDegrees,WindSpeedMPH,WindSpeedGustMPH,Humidity,HourlyPrecipIn,Conditions,Clouds,dailyrainin,SoftwareType,DateUTC
2013-11-11 00:01:00,78.1,69.0,30.11,NNE,22,13.1,16.0,74,0.00,,,0.00,Rainwise IP-100,2013-11-11 05:01:00,
2013-11-11 00:06:00,78.0,69.0,30.12,NNE,22,12.4,15.0,74,0.00,,,0.00,Rainwise IP-100,2013-11-11 05:06:00,
2013-11-11 00:11:00,78.1,69.0,30.11,NE,45,11.9,14.0,74,0.00,,,0.00,Rainwise IP-100,2013-11-11 05:11:00,
2013-11-11 00:16:00,78.2,69.0,30.11,ENE,67,15.2,17.0,74,0.00,,,0.00,Rainwise IP-100,2013-11-11 05:16:00,
2013-11-11 00:21:00,78.2,69.0,30.11,ENE,67,14.2,17.0,74,0.00,,,0.00,Rainwise IP-100,2013-11-11 05:21:00,
2013-11-11 00:26:00,78.2,69.0,30.11,NNE,22,13.1,17.0,74,0.00,,,0.00,Rainwise IP-100,2013-11-11 05:26:00,
2013-11-11 00:31:00,78.1,69.0,30.11,NE,45,12.1,17.0,74,0.00,,,0.00,Rainwise IP-100,2013-11-11 05:31:00,
2013-11-11 00:37:00,78.1,69.0,30.11,ENE,67,7.9,18.0,74,0.00,,,0.00,Rainwise IP-100,2013-11-11 05:37:00,
2013-11-11 00:42:00,78.1,69.0,30.11,NE,45,9.6,16.0,73,0.00,,,0.00,Rainwise IP-100,2013-11-11 05:42:00,
2013-11-11 00:47:00,78.2,69.0,30.11,North,360,9.6,15.0,74,0.00,,,0.00,Rainwise IP-100,2013-11-11 05:47:00,
2013-11-11 00:52:00,78.2,69.0,30.11,NE,45,9.6,15.0,74,0.00,,,0.00,Rainwise IP-100,2013-11-11 05:52:00,
2013-11-11 00:57:00,78.1,69.0,30.11,NE,45,14.9,16.0,75,0.00,,,0.00,Rainwise IP-100,2013-11-11 05:57:00,
2013-11-11 01:02:00,78.1,69.0,30.11,ENE,67,11.9,18.0,75,0.00,,,0.00,Rainwise IP-100,2013-11-11 06:02:00,
2013-11-11 01:07:00,78.0,69.0,30.11,NE,45,11.0,15.0,74,0.00,,,0.00,Rainwise IP-100,2013-11-11 06:07:00,
2013-11-11 01:13:00,78.0,69.0,30.11,ENE,67,7.9,15.0,74,0.00,,,0.00,Rainwise IP-100,2013-11-11 06:13:00,
2013-11-11 01:18:00,78.0,69.0,30.11,NE,45,12.1,15.0,73,0.00,,,0.00,Rainwise IP-100,2013-11-11 06:18:00,
2013-11-11 01:23:00,78.0,69.0,30.11,NE,45,8.6,16.0,74,0.00,,,0.00,Rainwise IP-100,2013-11-11 06:23:00,
2013-11-11 01:28:00,78.0,69.0,30.11,NE,45,8.4,15.0,74,0.00,,,0.00,Rainwise IP-100,2013-11-11 06:28:00,
2013-11-11 01:33:00,78.0,69.0,30.11,NE,45,8.9,14.0,75,0.00,,,0.00,Rainwise IP-100,2013-11-11 06:33:00,
2013-11-11 01:38:00,78.0,69.0,30.10,ENE,67,6.8,17.0,74,0.00,,,0.00,Rainwise IP-100,2013-11-11 06:38:00,
2013-11-11 01:43:00,78.0,69.0,30.11,NNE,22,12.6,15.0,74,0.00,,,0.00,Rainwise IP-100,2013-11-11 06:43:00,
2013-11-11 01:48:00,78.0,69.0,30.11,NE,45,7.2,16.0,74,0.00,,,0.00,Rainwise IP-100,2013-11-11 06:48:00,
2013-11-11 01:54:00,78.0,69.0,30.10,NE,45,6.5,16.0,74,0.00,,,0.00,Rainwise IP-100,2013-11-11 06:54:00,
2013-11-11 01:59:00,77.9,69.0,30.10,NE,45,6.5,11.0,74,0.00,,,0.00,Rainwise IP-100,2013-11-11 06:59:00,
2013-11-11 02:04:00,77.9,69.0,30.10,NE,45,7.5,15.0,75,0.00,,,0.00,Rainwise IP-100,2013-11-11 07:04:00,
2013-11-11 02:09:00,77.9,69.0,30.11,NNE,22,7.9,11.0,75,0.00,,,0.00,Rainwise IP-100,2013-11-11 07:09:00,
2013-11-11 02:14:00,77.9,69.0,30.10,ENE,67,6.1,13.0,75,0.00,,,0.00,Rainwise IP-100,2013-11-11 07:14:00,
2013-11-11 02:19:00,77.8,69.0,30.10,NNE,22,9.1,13.0,75,0.00,,,0.00,Rainwise IP-100,2013-11-11 07:19:00,
2013-11-11 02:24:00,77.8,69.0,30.09,NE,45,11.7,13.0,75,0.00,,,0.00,Rainwise IP-100,2013-11-11 07:24:00,
2013-11-11 02:30:00,77.7,69.0,30.10,NE,45,8.2,12.0,75,0.00,,,0.00,Rainwise IP-100,2013-11-11 07:30:00,
2013-11-11 02:35:00,77.8,69.0,30.10,NE,45,12.4,14.0,75,0.00,,,0.00,Rainwise IP-100,2013-11-11 07:35:00,
2013-11-11 02:40:00,77.7,69.0,30.10,NE,45,6.3,14.0,75,0.00,,,0.00,Rainwise IP-100,2013-11-11 07:40:00,
2013-11-11 02:45:00,77.6,69.0,30.10,NNE,22,2.6,14.0,75,0.00,,,0.00,Rainwise IP-100,2013-11-11 07:45:00,
2013-11-11 02:50:00,77.7,69.0,30.10,NNE,22,5.8,10.0,75,0.00,,,0.00,Rainwise IP-100,2013-11-11 07:50:00,
2013-11-11 02:55:00,77.7,69.0,30.10,NNE,22,7.5,17.0,75,0.00,,,0.00,Rainwise IP-100,2013-11-11 07:55:00,
2013-11-11 03:00:00,77.6,69.0,30.09,NE,45,8.6,14.0,75,0.00,,,0.00,Rainwise IP-100,2013-11-11 08:00:00,
2013-11-11 03:05:00,77.7,69.0,30.09,ENE,67,9.6,13.0,75,0.00,,,0.00,Rainwise IP-100,2013-11-11 08:05:00,
2013-11-11 03:11:00,77.8,69.0,30.09,NNE,22,7.5,14.0,75,0.00,,,0.00,Rainwise IP-100,2013-11-11 08:11:00,
2013-11-11 03:16:00,77.8,69.0,30.09,NE,45,11.2,14.0,75,0.00,,,0.00,Rainwise IP-100,2013-11-11 08:16:00,
2013-11-11 03:21:00,77.7,69.0,30.09,NE,45,6.3,13.0,76,0.00,,,0.00,Rainwise IP-100,2013-11-11 08:21:00,
2013-11-11 03:26:00,77.7,69.0,30.09,NE,45,5.1,17.0,76,0.00,,,0.00,Rainwise IP-100,2013-11-11 08:26:00,
2013-11-11 03:31:00,77.7,69.0,30.08,NE,45,9.8,14.0,76,0.00,,,0.00,Rainwise IP-100,2013-11-11 08:31:00,
2013-11-11 03:36:00,77.7,69.0,30.09,NNE,22,4.2,12.0,76,0.00,,,0.00,Rainwise IP-100,2013-11-11 08:36:00,
2013-11-11 03:41:00,77.6,69.0,30.09,NNE,22,9.1,14.0,76,0.00,,,0.00,Rainwise IP-100,2013-11-11 08:41:00,
2013-11-11 03:47:00,77.6,69.0,30.09,NNE,22,6.3,13.0,76,0.00,,,0.00,Rainwise IP-100,2013-11-11 08:47:00,
2013-11-11 03:52:00,77.7,69.0,30.09,NNE,22,6.3,11.0,76,0.00,,,0.00,Rainwise IP-100,2013-11-11 08:52:00,
2013-11-11 03:57:00,77.7,69.0,30.09,NE,45,7.9,12.0,76,0.00,,,0.00,Rainwise IP-100,2013-11-11 08:57:00,
2013-11-11 04:02:00,77.7,69.0,30.10,NNE,22,3.7,11.0,76,0.00,,,0.00,Rainwise IP-100,2013-11-11 09:02:00,
2013-11-11 04:07:00,77.7,70.0,30.09,NNE,22,4.4,10.0,77,0.00,,,0.00,Rainwise IP-100,2013-11-11 09:07:00,
2013-11-11 04:12:00,77.7,70.0,30.09,NE,45,7.0,14.0,77,0.00,,,0.00,Rainwise IP-100,2013-11-11 09:12:00,
2013-11-11 04:17:00,77.8,70.0,30.09,NE,45,9.8,15.0,77,0.00,,,0.00,Rainwise IP-100,2013-11-11 09:17:00,
2013-11-11 04:22:00,77.8,70.0,30.09,NE,45,9.8,12.0,77,0.00,,,0.00,Rainwise IP-100,2013-11-11 09:22:00,
2013-11-11 04:28:00,77.7,70.0,30.09,NE,45,6.1,13.0,77,0.00,,,0.00,Rainwise IP-100,2013-11-11 09:28:00,
2013-11-11 04:33:00,77.7,69.0,30.09,ENE,67,7.7,13.0,76,0.00,,,0.00,Rainwise IP-100,2013-11-11 09:33:00,
2013-11-11 04:38:00,77.8,69.0,30.09,NNE,22,5.8,14.0,76,0.00,,,0.00,Rainwise IP-100,2013-11-11 09:38:00,
2013-11-11 04:43:00,77.8,70.0,30.09,North,360,6.5,12.0,77,0.00,,,0.00,Rainwise IP-100,2013-11-11 09:43:00,
2013-11-11 04:48:00,77.8,70.0,30.09,NNE,22,5.1,13.0,77,0.00,,,0.00,Rainwise IP-100,2013-11-11 09:48:00,
2013-11-11 04:53:00,77.8,70.0,30.09,NE,45,10.0,13.0,77,0.00,,,0.00,Rainwise IP-100,2013-11-11 09:53:00,
2013-11-11 04:58:00,77.9,70.0,30.09,NNE,22,10.3,14.0,77,0.00,,,0.00,Rainwise IP-100,2013-11-11 09:58:00,
2013-11-11 05:04:00,77.9,70.0,30.09,ENE,67,7.5,13.0,77,0.00,,,0.00,Rainwise IP-100,2013-11-11 10:04:00,
2013-11-11 05:09:00,77.9,70.0,30.09,NE,45,5.6,12.0,77,0.00,,,0.00,Rainwise IP-100,2013-11-11 10:09:00,
2013-11-11 05:14:00,77.9,70.0,30.10,NE,45,8.2,12.0,77,0.00,,,0.00,Rainwise IP-100,2013-11-11 10:14:00,
2013-11-11 05:19:00,77.9,70.0,30.10,NNE,22,10.0,12.0,77,0.00,,,0.00,Rainwise IP-100,2013-11-11 10:19:00,
2013-11-11 05:24:00,77.9,71.0,30.10,ENE,67,8.4,13.0,78,0.00,,,0.00,Rainwise IP-100,2013-11-11 10:24:00,
2013-11-11 05:29:00,77.9,70.0,30.10,ENE,67,9.3,14.0,77,0.00,,,0.00,Rainwise IP-100,2013-11-11 10:29:00,
2013-11-11 05:34:00,77.9,70.0,30.10,NE,45,8.4,12.0,77,0.00,,,0.00,Rainwise IP-100,2013-11-11 10:34:00,
2013-11-11 05:39:00,77.9,70.0,30.10,ENE,67,10.0,11.0,77,0.00,,,0.00,Rainwise IP-100,2013-11-11 10:39:00,
2013-11-11 05:45:00,77.9,70.0,30.11,NNE,22,7.7,12.0,77,0.00,,,0.00,Rainwise IP-100,2013-11-11 10:45:00,
2013-11-11 05:50:00,77.9,70.0,30.10,NNE,22,5.4,14.0,77,0.00,,,0.00,Rainwise IP-100,2013-11-11 10:50:00,
2013-11-11 05:55:00,77.8,70.0,30.11,ENE,67,6.3,12.0,77,0.00,,,0.00,Rainwise IP-100,2013-11-11 10:55:00,
2013-11-11 06:00:00,77.8,70.0,30.11,NNE,22,3.7,13.0,77,0.00,,,0.00,Rainwise IP-100,2013-11-11 11:00:00,
2013-11-11 06:05:00,77.9,70.0,30.11,North,360,8.2,14.0,76,0.00,,,0.00,Rainwise IP-100,2013-11-11 11:05:00,
2013-11-11 06:10:00,78.0,70.0,30.11,NE,45,8.9,12.0,76,0.00,,,0.00,Rainwise IP-100,2013-11-11 11:10:00,
2013-11-11 06:15:00,78.1,70.0,30.11,NNE,22,9.3,10.0,77,0.00,,,0.00,Rainwise IP-100,2013-11-11 11:15:00,
2013-11-11 06:21:00,78.0,70.0,30.11,ENE,67,6.1,13.0,77,0.00,,,0.00,Rainwise IP-100,2013-11-11 11:21:00,
2013-11-11 06:26:00,78.0,70.0,30.11,ENE,67,9.8,14.0,77,0.00,,,0.00,Rainwise IP-100,2013-11-11 11:26:00,
2013-11-11 06:31:00,78.1,71.0,30.11,ENE,67,9.1,14.0,78,0.00,,,0.00,Rainwise IP-100,2013-11-11 11:31:00,
2013-11-11 06:36:00,78.1,70.0,30.11,ENE,67,9.8,14.0,77,0.00,,,0.00,Rainwise IP-100,2013-11-11 11:36:00,
2013-11-11 06:41:00,78.1,70.0,30.12,ENE,67,7.2,14.0,77,0.00,,,0.00,Rainwise IP-100,2013-11-11 11:41:00,
2013-11-11 06:46:00,78.1,70.0,30.11,North,360,6.8,14.0,77,0.00,,,0.00,Rainwise IP-100,2013-11-11 11:46:00,
2013-11-11 06:51:00,78.0,70.0,30.11,NE,45,10.5,12.0,77,0.00,,,0.00,Rainwise IP-100,2013-11-11 11:51:00,
2013-11-11 06:56:00,78.0,70.0,30.11,NNE,22,5.1,14.0,77,0.00,,,0.00,Rainwise IP-100,2013-11-11 11:56:00,
2013-11-11 07:02:00,78.0,70.0,30.12,NE,45,8.2,13.0,77,0.00,,,0.00,Rainwise IP-100,2013-11-11 12:02:00,
2013-11-11 07:07:00,78.1,70.0,30.11,NE,45,12.1,13.0,77,0.00,,,0.00,Rainwise IP-100,2013-11-11 12:07:00,
2013-11-11 07:12:00,78.1,70.0,30.12,NE,45,9.3,13.0,77,0.00,,,0.00,Rainwise IP-100,2013-11-11 12:12:00,
2013-11-11 07:17:00,78.2,70.0,30.12,NE,45,11.9,13.0,77,0.00,,,0.00,Rainwise IP-100,2013-11-11 12:17:00,
2013-11-11 07:22:00,78.3,70.0,30.12,ENE,67,11.0,14.0,76,0.00,,,0.00,Rainwise IP-100,2013-11-11 12:22:00,
2013-11-11 07:27:00,78.6,71.0,30.11,ENE,67,10.7,12.0,77,0.00,,,0.00,Rainwise IP-100,2013-11-11 12:27:00,
2013-11-11 07:32:00,78.8,70.0,30.12,NE,45,10.3,17.0,76,0.00,,,0.00,Rainwise IP-100,2013-11-11 12:32:00,
2013-11-11 07:38:00,79.2,71.0,30.12,NNE,22,7.0,12.0,76,0.00,,,0.00,Rainwise IP-100,2013-11-11 12:38:00,
2013-11-11 07:43:00,79.3,71.0,30.12,ENE,67,13.5,14.0,76,0.00,,,0.00,Rainwise IP-100,2013-11-11 12:43:00,
2013-11-11 07:48:00,79.1,70.0,30.12,ENE,67,8.2,15.0,75,0.00,,,0.00,Rainwise IP-100,2013-11-11 12:48:00,
2013-11-11 07:53:00,79.3,70.0,30.13,ENE,67,14.2,15.0,74,0.00,,,0.00,Rainwise IP-100,2013-11-11 12:53:00,
2013-11-11 07:58:00,79.5,70.0,30.12,ENE,67,10.0,18.0,74,0.00,,,0.00,Rainwise IP-100,2013-11-11 12:58:00,
2013-11-11 08:03:00,79.6,70.0,30.12,NNE,22,12.8,15.0,74,0.00,,,0.00,Rainwise IP-100,2013-11-11 13:03:00,
2013-11-11 08:08:00,79.8,70.0,30.13,NNE,22,15.4,17.0,73,0.00,,,0.00,Rainwise IP-100,2013-11-11 13:08:00,
2013-11-11 08:13:00,79.9,70.0,30.13,NNW,337,3.3,16.0,73,0.00,,,0.00,Rainwise IP-100,2013-11-11 13:13:00,
2013-11-11 08:19:00,80.0,70.0,30.13,NNE,22,8.9,13.0,73,0.00,,,0.00,Rainwise IP-100,2013-11-11 13:19:00,
2013-11-11 08:24:00,80.3,70.0,30.13,ENE,67,14.7,19.0,72,0.00,,,0.00,Rainwise IP-100,2013-11-11 13:24:00,
2013-11-11 08:29:00,80.5,70.0,30.13,NE,45,7.7,16.0,71,0.00,,,0.00,Rainwise IP-100,2013-11-11 13:29:00,
2013-11-11 08:34:00,80.4,71.0,30.14,ENE,67,9.6,14.0,72,0.00,,,0.00,Rainwise IP-100,2013-11-11 13:34:00,
2013-11-11 08:39:00,80.2,70.0,30.14,NNE,22,16.1,16.1,72,0.00,,,0.00,Rainwise IP-100,2013-11-11 13:39:00,
2013-11-11 08:44:00,80.2,70.0,30.14,ENE,67,16.6,16.6,72,0.00,,,0.00,Rainwise IP-100,2013-11-11 13:44:00,
2013-11-11 08:49:00,80.3,70.0,30.14,ENE,67,9.3,17.0,72,0.00,,,0.00,Rainwise IP-100,2013-11-11 13:49:00,
2013-11-11 08:55:00,80.4,71.0,30.14,NE,45,13.3,18.0,72,0.00,,,0.00,Rainwise IP-100,2013-11-11 13:55:00,
2013-11-11 09:00:00,80.4,70.0,30.14,NE,45,16.1,16.1,71,0.00,,,0.00,Rainwise IP-100,2013-11-11 14:00:00,
2013-11-11 09:05:00,80.5,70.0,30.14,ENE,67,12.6,17.0,71,0.00,,,0.00,Rainwise IP-100,2013-11-11 14:05:00,
2013-11-11 09:10:00,80.7,70.0,30.15,ENE,67,6.3,15.0,71,0.00,,,0.00,Rainwise IP-100,2013-11-11 14:10:00,
2013-11-11 09:15:00,80.9,70.0,30.16,ENE,67,16.8,19.0,70,0.00,,,0.00,Rainwise IP-100,2013-11-11 14:15:00,
2013-11-11 09:20:00,80.8,70.0,30.15,NE,45,13.1,18.0,70,0.00,,,0.00,Rainwise IP-100,2013-11-11 14:20:00,
2013-11-11 09:25:00,81.0,70.0,30.16,NE,45,8.9,17.0,70,0.00,,,0.00,Rainwise IP-100,2013-11-11 14:25:00,
2013-11-11 09:30:00,80.9,70.0,30.16,ENE,67,7.9,20.0,70,0.00,,,0.00,Rainwise IP-100,2013-11-11 14:30:00,
2013-11-11 09:36:00,80.6,70.0,30.15,NNE,22,14.5,15.0,70,0.00,,,0.00,Rainwise IP-100,2013-11-11 14:36:00,
2013-11-11 09:37:00,80.5,70.0,30.15,NNE,22,12.8,16.0,70,0.00,,,0.00,Rainwise IP-100,2013-11-11 14:37:00,
2013-11-11 09:42:00,80.4,70.0,30.16,ENE,67,9.6,17.0,70,0.00,,,0.00,Rainwise IP-100,2013-11-11 14:42:00,
2013-11-11 09:47:00,80.4,70.0,30.15,NNE,22,14.0,15.0,70,0.00,,,0.00,Rainwise IP-100,2013-11-11 14:47:00,
2013-11-11 09:52:00,80.5,70.0,30.15,NE,45,11.7,18.0,70,0.00,,,0.00,Rainwise IP-100,2013-11-11 14:52:00,
2013-11-11 09:57:00,80.7,70.0,30.16,ENE,67,10.5,16.0,70,0.00,,,0.00,Rainwise IP-100,2013-11-11 14:57:00,
2013-11-11 10:02:00,80.6,70.0,30.15,NNE,22,4.9,15.0,70,0.00,,,0.00,Rainwise IP-100,2013-11-11 15:02:00,
2013-11-11 10:08:00,80.7,70.0,30.15,NE,45,17.3,20.0,71,0.00,,,0.00,Rainwise IP-100,2013-11-11 15:08:00,
2013-11-11 10:13:00,80.8,70.0,30.15,NE,45,10.5,18.0,71,0.00,,,0.00,Rainwise IP-100,2013-11-11 15:13:00,
2013-11-11 10:18:00,80.9,70.0,30.15,ENE,67,11.7,17.0,70,0.00,,,0.00,Rainwise IP-100,2013-11-11 15:18:00,
2013-11-11 10:23:00,80.7,70.0,30.15,NE,45,11.9,17.0,71,0.00,,,0.00,Rainwise IP-100,2013-11-11 15:23:00,
2013-11-11 10:28:00,80.8,70.0,30.16,ESE,112,8.4,21.0,71,0.00,,,0.00,Rainwise IP-100,2013-11-11 15:28:00,
2013-11-11 10:33:00,81.0,70.0,30.15,NE,45,11.2,17.0,70,0.00,,,0.00,Rainwise IP-100,2013-11-11 15:33:00,
2013-11-11 10:38:00,81.0,70.0,30.16,ENE,67,11.0,19.0,70,0.00,,,0.00,Rainwise IP-100,2013-11-11 15:38:00,
2013-11-11 10:43:00,81.0,71.0,30.16,ENE,67,7.7,16.0,71,0.00,,,0.00,Rainwise IP-100,2013-11-11 15:43:00,
2013-11-11 10:49:00,80.9,70.0,30.15,NE,45,16.3,16.3,70,0.00,,,0.00,Rainwise IP-100,2013-11-11 15:49:00,
2013-11-11 10:54:00,81.0,70.0,30.15,ENE,67,9.3,17.0,70,0.00,,,0.00,Rainwise IP-100,2013-11-11 15:54:00,
2013-11-11 10:59:00,81.2,71.0,30.15,NE,45,7.9,16.0,70,0.00,,,0.00,Rainwise IP-100,2013-11-11 15:59:00,
2013-11-11 11:04:00,81.2,71.0,30.15,NE,45,10.5,16.0,70,0.00,,,0.00,Rainwise IP-100,2013-11-11 16:04:00,
2013-11-11 11:09:00,81.3,70.0,30.14,ENE,67,10.3,18.0,69,0.00,,,0.00,Rainwise IP-100,2013-11-11 16:09:00,
2013-11-11 11:14:00,81.4,69.0,30.15,NE,45,11.4,17.0,68,0.00,,,0.00,Rainwise IP-100,2013-11-11 16:14:00,
2013-11-11 11:19:00,81.3,69.0,30.15,NNE,22,11.7,16.0,68,0.00,,,0.00,Rainwise IP-100,2013-11-11 16:19:00,
2013-11-11 11:25:00,81.2,69.0,30.15,ENE,67,15.2,17.0,68,0.00,,,0.00,Rainwise IP-100,2013-11-11 16:25:00,
2013-11-11 11:30:00,81.3,69.0,30.15,ENE,67,10.0,14.0,68,0.00,,,0.00,Rainwise IP-100,2013-11-11 16:30:00,
2013-11-11 11:35:00,81.3,70.0,30.14,NE,45,11.0,15.0,69,0.00,,,0.00,Rainwise IP-100,2013-11-11 16:35:00,
2013-11-11 11:40:00,81.3,69.0,30.14,ENE,67,14.5,15.0,68,0.00,,,0.00,Rainwise IP-100,2013-11-11 16:40:00,
2013-11-11 11:45:00,81.5,70.0,30.14,ENE,67,8.6,16.0,68,0.00,,,0.00,Rainwise IP-100,2013-11-11 16:45:00,
2013-11-11 11:50:00,81.4,70.0,30.14,NE,45,12.6,17.0,69,0.00,,,0.00,Rainwise IP-100,2013-11-11 16:50:00,
2013-11-11 11:55:00,81.3,70.0,30.13,ENE,67,9.6,16.0,69,0.00,,,0.00,Rainwise IP-100,2013-11-11 16:55:00,
2013-11-11 12:00:00,81.3,70.0,30.14,NNE,22,9.8,17.0,69,0.00,,,0.00,Rainwise IP-100,2013-11-11 17:00:00,
2013-11-11 12:06:00,81.3,70.0,30.13,NE,45,11.9,15.0,69,0.00,,,0.00,Rainwise IP-100,2013-11-11 17:06:00,
2013-11-11 12:11:00,81.4,70.0,30.13,NE,45,11.7,18.0,69,0.00,,,0.00,Rainwise IP-100,2013-11-11 17:11:00,
2013-11-11 12:16:00,81.1,69.0,30.13,NE,45,11.7,18.0,68,0.00,,,0.00,Rainwise IP-100,2013-11-11 17:16:00,
2013-11-11 12:21:00,81.0,69.0,30.13,NE,45,9.8,18.0,68,0.00,,,0.00,Rainwise IP-100,2013-11-11 17:21:00,
2013-11-11 12:26:00,81.0,69.0,30.12,ENE,67,11.0,17.0,68,0.00,,,0.00,Rainwise IP-100,2013-11-11 17:26:00,
2013-11-11 12:31:00,81.4,69.0,30.12,NE,45,11.7,16.0,68,0.00,,,0.00,Rainwise IP-100,2013-11-11 17:31:00,
2013-11-11 12:36:00,81.4,69.0,30.12,NNE,22,9.6,15.0,67,0.00,,,0.00,Rainwise IP-100,2013-11-11 17:36:00,
2013-11-11 12:42:00,81.2,69.0,30.11,NE,45,11.0,14.0,68,0.00,,,0.00,Rainwise IP-100,2013-11-11 17:42:00,
2013-11-11 12:47:00,81.2,70.0,30.11,NNE,22,11.0,17.0,69,0.00,,,0.00,Rainwise IP-100,2013-11-11 17:47:00,
2013-11-11 12:52:00,81.2,70.0,30.11,ENE,67,9.3,15.0,69,0.00,,,0.00,Rainwise IP-100,2013-11-11 17:52:00,
2013-11-11 12:57:00,81.1,70.0,30.11,NE,45,10.3,16.0,69,0.00,,,0.00,Rainwise IP-100,2013-11-11 17:57:00,
2013-11-11 13:02:00,81.1,70.0,30.11,ENE,67,6.1,17.0,69,0.00,,,0.00,Rainwise IP-100,2013-11-11 18:02:00,
2013-11-11 13:07:00,81.0,69.0,30.11,NNE,22,7.9,18.0,68,0.00,,,0.00,Rainwise IP-100,2013-11-11 18:07:00,
2013-11-11 13:12:00,81.0,69.0,30.10,ENE,67,9.6,17.0,68,0.00,,,0.00,Rainwise IP-100,2013-11-11 18:12:00,
2013-11-11 13:17:00,81.0,69.0,30.11,ENE,67,8.2,14.0,68,0.00,,,0.00,Rainwise IP-100,2013-11-11 18:17:00,
2013-11-11 13:23:00,80.8,69.0,30.10,ENE,67,8.6,15.0,67,0.00,,,0.00,Rainwise IP-100,2013-11-11 18:23:00,
2013-11-11 13:28:00,81.0,69.0,30.11,ENE,67,5.8,13.0,67,0.00,,,0.00,Rainwise IP-100,2013-11-11 18:28:00,
2013-11-11 13:33:00,81.1,69.0,30.10,NE,45,13.5,15.0,67,0.00,,,0.00,Rainwise IP-100,2013-11-11 18:33:00,
2013-11-11 13:38:00,81.1,69.0,30.10,NE,45,9.8,17.0,67,0.00,,,0.00,Rainwise IP-100,2013-11-11 18:38:00,
2013-11-11 13:43:00,81.0,69.0,30.10,East,90,7.5,13.0,67,0.00,,,0.00,Rainwise IP-100,2013-11-11 18:43:00,
2013-11-11 13:48:00,81.0,69.0,30.10,NNE,22,7.5,15.0,68,0.00,,,0.00,Rainwise IP-100,2013-11-11 18:48:00,
2013-11-11 13:54:00,80.9,69.0,30.09,NNE,22,10.3,19.0,68,0.00,,,0.00,Rainwise IP-100,2013-11-11 18:54:00,
2013-11-11 13:59:00,80.8,69.0,30.10,NE,45,16.6,16.6,68,0.00,,,0.00,Rainwise IP-100,2013-11-11 18:59:00,
2013-11-11 14:04:00,80.6,69.0,30.10,ENE,67,6.8,16.0,69,0.00,,,0.00,Rainwise IP-100,2013-11-11 19:04:00,
2013-11-11 14:09:00,80.6,69.0,30.10,NE,45,12.1,14.0,69,0.00,,,0.00,Rainwise IP-100,2013-11-11 19:09:00,
2013-11-11 14:14:00,80.5,69.0,30.10,ENE,67,8.4,12.0,68,0.00,,,0.00,Rainwise IP-100,2013-11-11 19:14:00,
2013-11-11 14:19:00,80.4,69.0,30.10,NE,45,14.5,18.0,68,0.00,,,0.00,Rainwise IP-100,2013-11-11 19:19:00,
2013-11-11 14:24:00,80.4,69.0,30.10,ENE,67,9.1,16.0,68,0.00,,,0.00,Rainwise IP-100,2013-11-11 19:24:00,
2013-11-11 14:30:00,80.5,69.0,30.09,NNE,22,9.3,16.0,68,0.00,,,0.00,Rainwise IP-100,2013-11-11 19:30:00,
2013-11-11 14:35:00,80.4,69.0,30.11,NE,45,13.3,16.0,68,0.00,,,0.00,Rainwise IP-100,2013-11-11 19:35:00,
2013-11-11 14:40:00,80.3,69.0,30.10,East,90,5.8,17.0,68,0.00,,,0.00,Rainwise IP-100,2013-11-11 19:40:00,
2013-11-11 14:45:00,80.2,69.0,30.09,ENE,67,10.7,17.0,68,0.00,,,0.00,Rainwise IP-100,2013-11-11 19:45:00,
2013-11-11 14:50:00,80.2,69.0,30.09,ENE,67,7.5,15.0,68,0.00,,,0.00,Rainwise IP-100,2013-11-11 19:50:00,
2013-11-11 14:55:00,80.2,69.0,30.09,NE,45,13.1,17.0,68,0.00,,,0.00,Rainwise IP-100,2013-11-11 19:55:00,
2013-11-11 15:00:00,80.1,68.0,30.09,ENE,67,10.3,16.0,67,0.00,,,0.00,Rainwise IP-100,2013-11-11 20:00:00,
2013-11-11 15:05:00,80.1,68.0,30.09,ENE,67,13.3,18.0,68,0.00,,,0.00,Rainwise IP-100,2013-11-11 20:05:00,
2013-11-11 15:11:00,80.4,68.0,30.09,NE,45,13.5,16.0,67,0.00,,,0.00,Rainwise IP-100,2013-11-11 20:11:00,
2013-11-11 15:16:00,80.2,68.0,30.09,NNE,22,5.6,15.0,67,0.00,,,0.00,Rainwise IP-100,2013-11-11 20:16:00,
2013-11-11 15:21:00,80.3,69.0,30.09,ENE,67,12.1,17.0,68,0.00,,,0.00,Rainwise IP-100,2013-11-11 20:21:00,
2013-11-11 15:26:00,80.2,69.0,30.09,NE,45,8.9,16.0,68,0.00,,,0.00,Rainwise IP-100,2013-11-11 20:26:00,
2013-11-11 15:31:00,80.2,68.0,30.09,ENE,67,14.0,18.0,67,0.00,,,0.00,Rainwise IP-100,2013-11-11 20:31:00,
2013-11-11 15:36:00,80.1,68.0,30.09,ENE,67,8.6,16.0,68,0.00,,,0.00,Rainwise IP-100,2013-11-11 20:36:00,
2013-11-11 15:41:00,80.1,68.0,30.09,NE,45,10.0,15.0,67,0.00,,,0.00,Rainwise IP-100,2013-11-11 20:41:00,
2013-11-11 15:47:00,80.1,67.0,30.09,NE,45,8.4,14.0,66,0.00,,,0.00,Rainwise IP-100,2013-11-11 20:47:00,
2013-11-11 15:52:00,79.9,67.0,30.09,ENE,67,6.8,15.0,66,0.00,,,0.00,Rainwise IP-100,2013-11-11 20:52:00,
2013-11-11 15:57:00,79.8,67.0,30.09,NE,45,9.6,13.0,67,0.00,,,0.00,Rainwise IP-100,2013-11-11 20:57:00,
2013-11-11 16:02:00,79.7,67.0,30.09,NE,45,7.2,16.0,67,0.00,,,0.00,Rainwise IP-100,2013-11-11 21:02:00,
2013-11-11 16:07:00,79.4,67.0,30.09,ENE,67,7.2,13.0,67,0.00,,,0.00,Rainwise IP-100,2013-11-11 21:07:00,
2013-11-11 16:12:00,79.3,68.0,30.09,ENE,67,13.8,14.0,69,0.00,,,0.00,Rainwise IP-100,2013-11-11 21:12:00,
2013-11-11 16:17:00,79.3,68.0,30.10,ENE,67,11.7,15.0,69,0.00,,,0.00,Rainwise IP-100,2013-11-11 21:17:00,
2013-11-11 16:22:00,79.2,68.0,30.09,ENE,67,7.2,14.0,68,0.00,,,0.00,Rainwise IP-100,2013-11-11 21:22:00,
2013-11-11 16:28:00,79.1,67.0,30.10,ENE,67,11.9,12.0,68,0.00,,,0.00,Rainwise IP-100,2013-11-11 21:28:00,
2013-11-11 16:33:00,79.0,68.0,30.10,NNE,22,8.2,13.0,69,0.00,,,0.00,Rainwise IP-100,2013-11-11 21:33:00,
2013-11-11 16:38:00,78.9,68.0,30.09,East,90,12.1,13.0,69,0.00,,,0.00,Rainwise IP-100,2013-11-11 21:38:00,
2013-11-11 16:43:00,78.9,67.0,30.09,NE,45,10.7,15.0,68,0.00,,,0.00,Rainwise IP-100,2013-11-11 21:43:00,
2013-11-11 16:48:00,78.8,67.0,30.09,ENE,67,14.0,15.0,69,0.00,,,0.00,Rainwise IP-100,2013-11-11 21:48:00,
2013-11-11 16:53:00,78.7,67.0,30.09,ENE,67,7.9,14.0,69,0.00,,,0.00,Rainwise IP-100,2013-11-11 21:53:00,
2013-11-11 16:58:00,78.7,67.0,30.09,ENE,67,7.0,15.0,69,0.00,,,0.00,Rainwise IP-100,2013-11-11 21:58:00,
2013-11-11 17:04:00,78.7,67.0,30.10,NE,45,11.7,14.0,69,0.00,,,0.00,Rainwise IP-100,2013-11-11 22:04:00,
2013-11-11 17:09:00,78.6,67.0,30.10,ENE,67,16.3,16.3,69,0.00,,,0.00,Rainwise IP-100,2013-11-11 22:09:00,
2013-11-11 17:14:00,78.6,68.0,30.09,NE,45,11.7,17.0,70,0.00,,,0.00,Rainwise IP-100,2013-11-11 22:14:00,
2013-11-11 17:19:00,78.6,68.0,30.09,NE,45,8.4,16.0,71,0.00,,,0.00,Rainwise IP-100,2013-11-11 22:19:00,
2013-11-11 17:24:00,78.5,68.0,30.09,NNE,22,10.3,16.0,71,0.00,,,0.00,Rainwise IP-100,2013-11-11 22:24:00,
2013-11-11 17:29:00,78.3,68.0,30.09,ENE,67,4.9,15.0,70,0.00,,,0.00,Rainwise IP-100,2013-11-11 22:29:00,
2013-11-11 17:34:00,78.3,68.0,30.09,NE,45,6.8,12.0,70,0.00,,,0.00,Rainwise IP-100,2013-11-11 22:34:00,
2013-11-11 17:39:00,78.3,68.0,30.09,NNE,22,12.1,15.0,70,0.00,,,0.00,Rainwise IP-100,2013-11-11 22:39:00,
2013-11-11 17:45:00,78.2,68.0,30.09,ENE,67,7.0,13.0,70,0.00,,,0.00,Rainwise IP-100,2013-11-11 22:45:00,
2013-11-11 17:50:00,78.2,68.0,30.09,NE,45,10.3,14.0,70,0.00,,,0.00,Rainwise IP-100,2013-11-11 22:50:00,
2013-11-11 17:55:00,78.2,67.0,30.09,ENE,67,8.6,15.0,69,0.00,,,0.00,Rainwise IP-100,2013-11-11 22:55:00,
2013-11-11 18:00:00,78.3,67.0,30.09,ENE,67,7.0,14.0,68,0.00,,,0.00,Rainwise IP-100,2013-11-11 23:00:00,
2013-11-11 18:05:00,78.3,67.0,30.09,NE,45,9.8,15.0,68,0.00,,,0.00,Rainwise IP-100,2013-11-11 23:05:00,
2013-11-11 18:10:00,78.2,67.0,30.09,NE,45,15.2,16.0,69,0.00,,,0.00,Rainwise IP-100,2013-11-11 23:10:00,
2013-11-11 18:15:00,78.2,67.0,30.09,ENE,67,12.8,18.0,69,0.00,,,0.00,Rainwise IP-100,2013-11-11 23:15:00,
2013-11-11 18:21:00,78.2,67.0,30.09,ENE,67,7.5,17.0,69,0.00,,,0.00,Rainwise IP-100,2013-11-11 23:21:00,
2013-11-11 18:26:00,78.1,67.0,30.09,NNE,22,9.6,14.0,70,0.00,,,0.00,Rainwise IP-100,2013-11-11 23:26:00,
2013-11-11 18:31:00,78.1,68.0,30.10,ENE,67,11.0,14.0,71,0.00,,,0.00,Rainwise IP-100,2013-11-11 23:31:00,
2013-11-11 18:36:00,78.1,67.0,30.10,NE,45,11.7,15.0,70,0.00,,,0.00,Rainwise IP-100,2013-11-11 23:36:00,
2013-11-11 18:41:00,78.1,67.0,30.09,NNE,22,7.9,15.0,70,0.00,,,0.00,Rainwise IP-100,2013-11-11 23:41:00,
2013-11-11 18:46:00,78.1,67.0,30.09,NE,45,9.1,16.0,70,0.00,,,0.00,Rainwise IP-100,2013-11-11 23:46:00,
2013-11-11 18:51:00,78.0,67.0,30.10,NNE,22,11.4,16.0,70,0.00,,,0.00,Rainwise IP-100,2013-11-11 23:51:00,
2013-11-11 18:56:00,78.0,67.0,30.09,ENE,67,6.3,15.0,70,0.00,,,0.00,Rainwise IP-100,2013-11-11 23:56:00,
2013-11-11 19:02:00,78.0,68.0,30.10,NE,45,8.6,15.0,71,0.00,,,0.00,Rainwise IP-100,2013-11-12 00:02:00,
2013-11-11 19:07:00,77.9,68.0,30.10,ENE,67,12.4,15.0,71,0.00,,,0.00,Rainwise IP-100,2013-11-12 00:07:00,
2013-11-11 19:12:00,77.9,68.0,30.10,NE,45,8.9,16.0,71,0.00,,,0.00,Rainwise IP-100,2013-11-12 00:12:00,
2013-11-11 19:17:00,78.0,68.0,30.10,NE,45,6.1,16.0,71,0.00,,,0.00,Rainwise IP-100,2013-11-12 00:17:00,
2013-11-11 19:22:00,78.0,67.0,30.10,NNE,22,11.0,15.0,70,0.00,,,0.00,Rainwise IP-100,2013-11-12 00:22:00,
2013-11-11 19:27:00,78.0,68.0,30.10,NE,45,11.0,15.0,71,0.00,,,0.00,Rainwise IP-100,2013-11-12 00:27:00,
2013-11-11 19:32:00,78.0,68.0,30.10,ENE,67,4.2,16.0,71,0.00,,,0.00,Rainwise IP-100,2013-11-12 00:32:00,
2013-11-11 19:38:00,78.0,68.0,30.10,NE,45,12.1,13.0,71,0.00,,,0.00,Rainwise IP-100,2013-11-12 00:38:00,
2013-11-11 19:43:00,77.9,68.0,30.11,NE,45,10.3,16.0,71,0.00,,,0.00,Rainwise IP-100,2013-11-12 00:43:00,
2013-11-11 19:48:00,77.9,68.0,30.10,NNE,22,9.8,17.0,71,0.00,,,0.00,Rainwise IP-100,2013-11-12 00:48:00,
2013-11-11 19:53:00,77.9,67.0,30.11,NE,45,5.8,15.0,70,0.00,,,0.00,Rainwise IP-100,2013-11-12 00:53:00,
2013-11-11 19:58:00,77.9,67.0,30.11,ENE,67,7.0,14.0,70,0.00,,,0.00,Rainwise IP-100,2013-11-12 00:58:00,
2013-11-11 20:03:00,77.9,67.0,30.10,NE,45,13.3,13.3,69,0.00,,,0.00,Rainwise IP-100,2013-11-12 01:03:00,
2013-11-11 20:08:00,77.9,67.0,30.10,ENE,67,7.9,16.0,69,0.00,,,0.00,Rainwise IP-100,2013-11-12 01:08:00,
2013-11-11 20:13:00,77.9,67.0,30.10,ENE,67,12.6,17.0,70,0.00,,,0.00,Rainwise IP-100,2013-11-12 01:13:00,
2013-11-11 20:19:00,77.9,67.0,30.11,East,90,9.1,14.0,70,0.00,,,0.00,Rainwise IP-100,2013-11-12 01:19:00,
2013-11-11 20:24:00,77.9,67.0,30.11,East,90,7.0,13.0,70,0.00,,,0.00,Rainwise IP-100,2013-11-12 01:24:00,
2013-11-11 20:29:00,77.9,67.0,30.10,ENE,67,9.3,15.0,70,0.00,,,0.00,Rainwise IP-100,2013-11-12 01:29:00,
2013-11-11 20:34:00,77.8,67.0,30.10,NE,45,5.4,13.0,71,0.00,,,0.00,Rainwise IP-100,2013-11-12 01:34:00,
2013-11-11 20:39:00,77.8,67.0,30.10,ENE,67,9.3,14.0,71,0.00,,,0.00,Rainwise IP-100,2013-11-12 01:39:00,
2013-11-11 20:44:00,77.9,67.0,30.11,NE,45,12.1,13.0,70,0.00,,,0.00,Rainwise IP-100,2013-11-12 01:44:00,
2013-11-11 20:49:00,77.9,67.0,30.11,ENE,67,6.5,14.0,70,0.00,,,0.00,Rainwise IP-100,2013-11-12 01:49:00,
2013-11-11 20:55:00,77.9,67.0,30.11,ENE,67,5.8,13.0,69,0.00,,,0.00,Rainwise IP-100,2013-11-12 01:55:00,
2013-11-11 21:00:00,77.9,67.0,30.11,NE,45,11.4,17.0,70,0.00,,,0.00,Rainwise IP-100,2013-11-12 02:00:00,
2013-11-11 21:05:00,77.9,68.0,30.11,ESE,112,7.0,13.0,71,0.00,,,0.00,Rainwise IP-100,2013-11-12 02:05:00,
2013-11-11 21:10:00,77.9,68.0,30.11,NE,45,8.2,13.0,71,0.00,,,0.00,Rainwise IP-100,2013-11-12 02:10:00,
2013-11-11 21:15:00,77.9,67.0,30.11,NE,45,12.1,14.0,70,0.00,,,0.00,Rainwise IP-100,2013-11-12 02:15:00,
2013-11-11 21:20:00,77.9,67.0,30.11,NE,45,12.4,14.0,70,0.00,,,0.00,Rainwise IP-100,2013-11-12 02:20:00,
2013-11-11 21:25:00,77.9,67.0,30.11,ENE,67,6.8,17.0,70,0.00,,,0.00,Rainwise IP-100,2013-11-12 02:25:00,
2013-11-11 21:30:00,77.9,67.0,30.11,NE,45,8.2,12.0,70,0.00,,,0.00,Rainwise IP-100,2013-11-12 02:30:00,
2013-11-11 21:36:00,77.8,67.0,30.11,NE,45,9.8,14.0,70,0.00,,,0.00,Rainwise IP-100,2013-11-12 02:36:00,
2013-11-11 21:41:00,77.9,67.0,30.12,NNE,22,10.5,13.0,69,0.00,,,0.00,Rainwise IP-100,2013-11-12 02:41:00,
2013-11-11 21:46:00,77.9,66.0,30.12,ENE,67,12.6,13.0,68,0.00,,,0.00,Rainwise IP-100,2013-11-12 02:46:00,
2013-11-11 21:51:00,78.0,66.0,30.12,ENE,67,7.5,17.0,67,0.00,,,0.00,Rainwise IP-100,2013-11-12 02:51:00,
2013-11-11 21:56:00,78.1,66.0,30.11,NE,45,10.0,15.0,67,0.00,,,0.00,Rainwise IP-100,2013-11-12 02:56:00,
2013-11-11 22:01:00,78.1,66.0,30.12,NE,45,6.8,12.0,67,0.00,,,0.00,Rainwise IP-100,2013-11-12 03:01:00,
2013-11-11 22:06:00,78.0,66.0,30.12,ENE,67,9.8,15.0,68,0.00,,,0.00,Rainwise IP-100,2013-11-12 03:06:00,
2013-11-11 22:12:00,78.0,66.0,30.12,ENE,67,7.7,15.0,67,0.00,,,0.00,Rainwise IP-100,2013-11-12 03:12:00,
2013-11-11 22:17:00,78.1,66.0,30.12,NE,45,10.7,12.0,66,0.00,,,0.00,Rainwise IP-100,2013-11-12 03:17:00,
2013-11-11 22:22:00,78.1,66.0,30.12,ENE,67,8.6,14.0,67,0.00,,,0.00,Rainwise IP-100,2013-11-12 03:22:00,
2013-11-11 22:27:00,78.0,67.0,30.12,ENE,67,13.3,13.3,69,0.00,,,0.00,Rainwise IP-100,2013-11-12 03:27:00,
2013-11-11 22:32:00,78.0,67.0,30.11,NE,45,11.4,14.0,69,0.00,,,0.00,Rainwise IP-100,2013-11-12 03:32:00,
2013-11-11 22:37:00,77.9,67.0,30.12,ENE,67,5.6,13.0,69,0.00,,,0.00,Rainwise IP-100,2013-11-12 03:37:00,
2013-11-11 22:42:00,77.9,67.0,30.11,ENE,67,8.2,12.0,70,0.00,,,0.00,Rainwise IP-100,2013-11-12 03:42:00,
2013-11-11 22:47:00,77.8,67.0,30.11,ENE,67,3.0,14.0,70,0.00,,,0.00,Rainwise IP-100,2013-11-12 03:47:00,
2013-11-11 22:53:00,77.9,67.0,30.12,ENE,67,9.8,11.0,70,0.00,,,0.00,Rainwise IP-100,2013-11-12 03:53:00,
2013-11-11 22:58:00,77.9,67.0,30.11,ENE,67,10.7,13.0,70,0.00,,,0.00,Rainwise IP-100,2013-11-12 03:58:00,
2013-11-11 23:03:00,77.8,67.0,30.12,ENE,67,6.3,12.0,71,0.00,,,0.00,Rainwise IP-100,2013-11-12 04:03:00,
2013-11-11 23:08:00,77.8,68.0,30.11,ENE,67,11.0,11.0,72,0.00,,,0.00,Rainwise IP-100,2013-11-12 04:08:00,
2013-11-11 23:13:00,77.8,68.0,30.11,ENE,67,5.4,14.0,72,0.00,,,0.00,Rainwise IP-100,2013-11-12 04:13:00,
2013-11-11 23:18:00,77.8,68.0,30.11,ENE,67,7.7,12.0,72,0.00,,,0.00,Rainwise IP-100,2013-11-12 04:18:00,
2013-11-11 23:23:00,77.8,68.0,30.11,ENE,67,6.1,11.0,72,0.00,,,0.00,Rainwise IP-100,2013-11-12 04:23:00,
2013-11-11 23:29:00,77.7,67.0,30.11,NE,45,10.3,13.0,71,0.00,,,0.00,Rainwise IP-100,2013-11-12 04:29:00,
2013-11-11 23:34:00,77.7,67.0,30.11,ENE,67,7.7,13.0,71,0.00,,,0.00,Rainwise IP-100,2013-11-12 04:34:00,
2013-11-11 23:39:00,77.7,67.0,30.11,NNE,22,8.9,14.0,71,0.00,,,0.00,Rainwise IP-100,2013-11-12 04:39:00,
2013-11-11 23:44:00,77.7,67.0,30.11,ENE,67,6.8,15.0,71,0.00,,,0.00,Rainwise IP-100,2013-11-12 04:44:00,
2013-11-11 23:49:00,77.7,67.0,30.11,ESE,112,4.7,14.0,71,0.00,,,0.00,Rainwise IP-100,2013-11-12 04:49:00,
2013-11-11 23:54:00,77.7,68.0,30.10,ENE,67,8.2,11.0,72,0.00,,,0.00,Rainwise IP-100,2013-11-12 04:54:00,
2013-11-11 23:59:00,77.7,67.0,30.11,ENE,67,8.6,12.0,71,0.00,,,0.00,Rainwise IP-100,2013-11-12 04:59:00,